Location: Bannatyne
(13.0833°N, 59.5333°W)
Time: 03:09:13
(UTC+00:00)

deb Explorer IX - Pass Details

Date: 24 January 2020
Orbit: 549 x 1099 km, 38.8° (Epoch: 18 February)

Event Time Altitude Azimuth Distance (km) Brightness Sun altitude
Rises 22:58:38 0° 226° (SW) 3,339 ? -15.5°
Reaches altitude 10° 23:01:00 10° 224° (SW) 2,488 ? -16.0°
Maximum altitude 23:07:01 74° 139° (SE) 990 ? -17.5°
Enters shadow 23:10:48 28° 60° (ENE) 1,787 ? -18.3°
Drops below altitude 10° 23:13:55 10° 55° (NE) 2,840 - -19.1°
Sets 23:16:46 0° 54° (NE) 3,842 - -19.7°
